Pampa, TX

3:54 PM CDT on September 24, 2016 (GMT -0500)
Perry Lefors

Weather History for KPPA - October, 2013

Change the Weather History Date:

Monday, October 14, 2013

  Actual Average Record
Temperature  
Mean Temperature 66 °F -  
Max Temperature 76 °F 76 °F 93 °F (1968)
Min Temperature 54 °F 47 °F 28 °F (1969)
Growing Degree Days 16 (Base 50)    
Moisture  
Dew Point 56 °F    
Average Humidity 75    
Maximum Humidity 96    
Minimum Humidity 41    
Precipitation  
Precipitation 0.00 in - - ()
Sea Level Pressure  
Sea Level Pressure 29.99 in    
Wind  
Wind Speed 15 mph (SSW)    
Max Wind Speed 24 mph    
Max Gust Speed 29 mph    
Visibility 8 miles    
Events      
Averages and records for this station are not official NWS values.
T = Trace of Precipitation, MM = Missing Value Source: NWS Daily Summary

Daily Weather History Graph

Daily Weather History Graph

Search for Another Location

Airport or City:

Trip Planner

Search our weather history database for the weather conditions in past years. The results will help you decide how hot, cold, wet, or windy it might be!

Date:

Astronomy

Oct. 14, 2013 Rise Set
Actual Time 7:49 AM CDT 7:09 PM CDT
Civil Twilight 7:24 AM CDT 7:35 PM CDT
Nautical Twilight 6:54 AM CDT 8:04 PM CDT
Astronomical Twilight 6:24 AM CDT 8:34 PM CDT
Moon 4:32 PM CDT (10/14) 3:17 AM CDT (10/14)
Length of Visible Light 12h 10m
Length of Day
11h 19m
Waxing Gibbous, 79% of the Moon is Illuminated
Oct 14
Waxing Gibbous
Oct 18
Full
Oct 26
Last Quarter
Nov 3
New
Nov 9
First Quarter

Hourly Weather History & Observations

Time (CDT) Temp. Dew Point Humidity Pressure Visibility Wind Dir Wind Speed Gust Speed Precip Events Conditions
12:15 AM 59.5 °F 58.3 °F 96% 30.15 in 0.8 mi SSE 13.8 mph 20.7 mph N/A   Overcast
12:35 AM 59.9 °F 58.6 °F 96% 30.16 in 2.5 mi SSE 17.3 mph - N/A   Overcast
12:55 AM 59.9 °F 58.6 °F 96% 30.15 in 4.0 mi SSE 13.8 mph 19.6 mph N/A   Overcast
1:15 AM 60.1 °F 58.6 °F 95% 30.14 in 5.0 mi SSE 12.7 mph - N/A   Overcast
1:35 AM 60.4 °F 58.3 °F 93% 30.14 in 5.0 mi South 11.5 mph - N/A   Overcast
2:15 AM 60.8 °F 58.8 °F 93% 30.12 in 5.0 mi SSE 17.3 mph 21.9 mph N/A   Overcast
2:55 AM 61.2 °F 59.0 °F 93% 30.11 in 5.0 mi SSE 13.8 mph - N/A   Overcast
3:15 AM 61.3 °F 59.0 °F 92% 30.10 in 5.0 mi South 18.4 mph 21.9 mph N/A   Overcast
3:35 AM 61.5 °F 59.0 °F 91% 30.09 in 5.0 mi South 15.0 mph 23.0 mph N/A   Overcast
3:55 AM 61.5 °F 59.0 °F 91% 30.09 in 5.0 mi South 15.0 mph 18.4 mph N/A   Overcast
4:15 AM 61.5 °F 59.0 °F 91% 30.08 in 5.0 mi South 13.8 mph 23.0 mph N/A   Overcast
4:35 AM 61.5 °F 59.0 °F 91% 30.08 in 7.0 mi South 13.8 mph - N/A   Overcast
4:55 AM 61.2 °F 59.0 °F 93% 30.07 in 5.0 mi South 12.7 mph - N/A   Overcast
5:15 AM 61.2 °F 59.0 °F 93% 30.06 in 5.0 mi South 13.8 mph - N/A   Overcast
5:35 AM 61.2 °F 59.0 °F 93% 30.05 in 7.0 mi South 15.0 mph 20.7 mph N/A   Overcast
5:55 AM 61.3 °F 59.0 °F 92% 30.05 in 7.0 mi South 10.4 mph 17.3 mph N/A   Overcast
6:15 AM 61.5 °F 59.0 °F 91% 30.05 in 7.0 mi South 12.7 mph 18.4 mph N/A   Overcast
6:35 AM 61.7 °F 59.0 °F 91% 30.04 in 7.0 mi South 16.1 mph 19.6 mph N/A   Overcast
6:55 AM 61.7 °F 59.0 °F 91% 30.04 in 7.0 mi South 12.7 mph - N/A   Overcast
7:15 AM 61.7 °F 59.0 °F 91% 30.04 in 7.0 mi South 12.7 mph - N/A   Overcast
7:35 AM 61.3 °F 59.0 °F 92% 30.05 in 5.0 mi South 11.5 mph - N/A   Overcast
7:55 AM 61.0 °F 59.2 °F 94% 30.04 in 3.0 mi South 11.5 mph - N/A   Light Drizzle
8:15 AM 61.2 °F 59.4 °F 94% 30.03 in 3.0 mi South 12.7 mph 18.4 mph N/A   Drizzle
8:35 AM 61.2 °F 59.5 °F 94% 30.03 in 4.0 mi South 15.0 mph 21.9 mph N/A   Light Drizzle
9:15 AM 61.7 °F 59.9 °F 94% 30.02 in 10.0 mi South 16.1 mph 23.0 mph N/A   Overcast
9:35 AM 61.9 °F 59.9 °F 93% 30.03 in 10.0 mi South 16.1 mph 20.7 mph N/A   Overcast
9:55 AM 61.9 °F 59.9 °F 93% 30.03 in 3.0 mi South 15.0 mph 20.7 mph N/A   Overcast
10:15 AM 62.6 °F 60.4 °F 93% 30.01 in 10.0 mi South 16.1 mph 21.9 mph N/A   Overcast
10:35 AM 62.8 °F 60.3 °F 91% 30.01 in 10.0 mi South 15.0 mph 23.0 mph N/A   Overcast
10:55 AM 63.3 °F 60.3 °F 90% 30.00 in 10.0 mi SSW 15.0 mph 23.0 mph N/A   Overcast
11:15 AM 63.5 °F 60.1 °F 89% 30.00 in 10.0 mi SSW 16.1 mph 20.7 mph N/A   Overcast
11:35 AM 63.9 °F 60.1 °F 87% 30.00 in 10.0 mi SSW 16.1 mph 21.9 mph N/A   Overcast
11:55 AM 66.6 °F 61.2 °F 83% 29.99 in 10.0 mi SSW 19.6 mph 26.5 mph N/A   Overcast
12:15 PM 68.5 °F 61.5 °F 78% 29.98 in 10.0 mi SSW 21.9 mph 27.6 mph N/A   Overcast
12:35 PM 67.6 °F 61.2 °F 80% 29.96 in 10.0 mi SSW 20.7 mph 26.5 mph N/A   Overcast
12:55 PM 69.4 °F 61.3 °F 75% 29.94 in 10.0 mi SSW 18.4 mph 27.6 mph N/A   Mostly Cloudy
1:15 PM 71.2 °F 61.0 °F 70% 29.93 in 10.0 mi SW 24.2 mph 28.8 mph N/A   Mostly Cloudy
1:35 PM 72.7 °F 61.0 °F 67% 29.92 in 10.0 mi SW 20.7 mph 27.6 mph N/A   Scattered Clouds
1:55 PM 73.2 °F 60.4 °F 64% 29.91 in 10.0 mi SSW 19.6 mph 25.3 mph N/A   Mostly Cloudy
2:15 PM 73.0 °F 59.4 °F 62% 29.90 in 10.0 mi SW 20.7 mph 26.5 mph N/A   Mostly Cloudy
2:35 PM 73.8 °F 59.4 °F 61% 29.89 in 10.0 mi SW 19.6 mph 24.2 mph N/A   Mostly Cloudy
2:55 PM 74.5 °F 58.6 °F 58% 29.87 in 10.0 mi SSW 16.1 mph - N/A   Scattered Clouds
3:15 PM 73.6 °F 59.4 °F 61% 29.86 in 10.0 mi SSW 17.3 mph 23.0 mph N/A   Scattered Clouds
3:35 PM 75.6 °F 56.7 °F 52% 29.86 in 10.0 mi SW 17.3 mph 23.0 mph N/A   Clear
3:55 PM 75.6 °F 55.2 °F 49% 29.86 in 10.0 mi SW 19.6 mph 24.2 mph N/A   Clear
4:15 PM 75.2 °F 53.2 °F 46% 29.86 in 10.0 mi SW 17.3 mph 26.5 mph N/A   Clear
4:35 PM 76.3 °F 52.3 °F 43% 29.86 in 10.0 mi SW 21.9 mph 25.3 mph N/A   Scattered Clouds
4:55 PM 75.6 °F 52.5 °F 45% 29.86 in 10.0 mi SW 18.4 mph 23.0 mph N/A   Scattered Clouds
5:15 PM 75.0 °F 52.0 °F 44% 29.86 in 10.0 mi SW 17.3 mph 21.9 mph N/A   Scattered Clouds
5:35 PM 74.8 °F 50.4 °F 42% 29.86 in 10.0 mi SW 18.4 mph 25.3 mph N/A   Scattered Clouds
5:55 PM 73.6 °F 50.7 °F 45% 29.87 in 10.0 mi SW 16.1 mph - N/A   Clear
6:15 PM 73.2 °F 48.4 °F 41% 29.87 in 10.0 mi SW 13.8 mph - N/A   Scattered Clouds
6:35 PM 72.3 °F 48.0 °F 42% 29.87 in 10.0 mi SW 15.0 mph - N/A   Clear
6:55 PM 71.1 °F 48.2 °F 44% 29.88 in 10.0 mi SW 10.4 mph 19.6 mph N/A   Clear
7:35 PM 65.1 °F 50.2 °F 58% 29.90 in 10.0 mi SSW 5.8 mph - N/A   Clear
7:55 PM 62.8 °F 50.9 °F 65% 29.91 in 10.0 mi SW 8.1 mph - N/A   Clear
8:15 PM 62.8 °F 51.4 °F 66% 29.92 in 10.0 mi SW 9.2 mph - N/A   Clear
8:35 PM 62.8 °F 50.7 °F 65% 29.92 in 10.0 mi SW 9.2 mph - N/A   Clear
8:55 PM 61.7 °F 50.9 °F 68% 29.93 in 10.0 mi SW 9.2 mph - N/A   Clear
9:15 PM 61.5 °F 50.9 °F 68% 29.94 in 10.0 mi SW 9.2 mph - N/A   Clear
9:35 PM 60.4 °F 50.2 °F 69% 29.95 in 10.0 mi SW 10.4 mph - N/A   Clear
9:55 PM 61.2 °F 49.5 °F 65% 29.95 in 10.0 mi SW 8.1 mph - N/A   Clear
10:15 PM 59.9 °F 48.7 °F 67% 29.96 in 10.0 mi SW 8.1 mph - N/A   Clear
10:35 PM 60.1 °F 45.3 °F 58% 29.97 in 10.0 mi WSW 4.6 mph - N/A   Clear
10:55 PM 61.3 °F 40.3 °F 46% 30.00 in 10.0 mi North 21.9 mph 28.8 mph N/A   Clear
11:15 PM 56.5 °F 41.4 °F 57% 30.02 in 10.0 mi NNE 19.6 mph 27.6 mph N/A   Clear
11:35 PM 55.2 °F 41.5 °F 60% 30.03 in 10.0 mi NNE 16.1 mph 21.9 mph N/A   Clear
11:55 PM 54.5 °F 39.7 °F 57% 30.05 in 10.0 mi NNE 16.1 mph 25.3 mph N/A   Clear